Shi Jian 6/5B

operational
NORAD ID: 49961 Int'l Des: 2021-122 Owner: CASC Country: CN
LEOCIRCULARRETROGRADESSO

关于 Shi Jian 6/5B

正在加载描述...

实时位置

正在加载3D地球...

即将过境

高度历史

Altitude vs Time

uPlot chart will show altitude changes over time

两行轨道根数

1 49961U 21122A 26062.47543419 .00003953 00000-0 33047-3 0 9990
2 49961 97.3983 36.2451 0003342 88.9899 271.1708 14.99035303232914
Epoch: Mar 3, 2026 • Age: 31 hours

当前状态

高度 580.8 km
速度 7.58 km/s
星下点 79.10°N, 87.88°E
发射日期 Dec 10, 2021
运行时间 4.2 years
类型 other

技术详情

分类 Payload
质量 1000.00 kg
干质量 1000.00 kg
总质量 1000.00 kg
长度 1.40 m
直径 1.40 m
跨度 8.60 m
形状 Box + 2 Pan
制造商 SAST
平台类型 FY-1
阶段状态 In Orbit
所有者/国家 CASC/CN

大型星座

Loading constellations...